Guymon, OK

11:12 AM CDT on July 21, 2017 (GMT -0500)
Guymon Municipal

Weather History for KGUY - May, 2012

Change the Weather History Date:

Friday, May 11, 2012

  Actual Average Record
Temperature  
Mean Temperature 62 °F 63 °F  
Max Temperature 73 °F 78 °F 96 °F (2002)
Min Temperature 51 °F 49 °F 33 °F (2008)
Degree Days  
Heating Degree Days 3 4  
Month to date heating degree days 23 53  
Since 1 July heating degree days 3774 4406  
Cooling Degree Days 0 2  
Month to date cooling degree days 42 18  
Year to date cooling degree days 110 33  
Growing Degree Days 12 (Base 50)    
Moisture  
Dew Point 46 °F    
Average Humidity 56    
Maximum Humidity 77    
Minimum Humidity 35    
Precipitation  
Precipitation 0.00 in 0.06 in 0.21 in (2011)
Month to date precipitation T 0.63  
Year to date precipitation 3.60 4.44  
Snow  
Snow 0.00 in - - ()
Month to date snowfall 0.0  
Since 1 July snowfall 9.1  
Snow Depth 0.00 in    
Sea Level Pressure  
Sea Level Pressure 29.94 in    
Wind  
Wind Speed 6 mph (SE)    
Max Wind Speed 17 mph    
Max Gust Speed 23 mph    
Visibility 10 miles    
Events      
T = Trace of Precipitation, MM = Missing Value Source: NWS Daily Summary

Daily Weather History Graph

Daily Weather History Graph

Search for Another Location

Airport or City:

Trip Planner

Search our weather history database for the weather conditions in past years. The results will help you decide how hot, cold, wet, or windy it might be!

Date:

Astronomy

May. 11, 2012 Rise Set
Actual Time 6:41 AM CDT 8:43 PM CDT
Civil Twilight 6:13 AM CDT 9:12 PM CDT
Nautical Twilight 5:38 AM CDT 9:47 PM CDT
Astronomical Twilight 5:00 AM CDT 10:24 PM CDT
Moon 1:25 AM CDT (5/11) 12:14 PM CDT (5/11)
Length of Visible Light 14h 59m
Length of Day
14h 01m
Waning Gibbous, 63% of the Moon is Illuminated
May 11
Waning Gibbous
May 12
Last Quarter
May 20
New
May 28
First Quarter
Jun 4
Full

Hourly Weather History & Observations

Time (CDT) Temp. Dew Point Humidity Pressure Visibility Wind Dir Wind Speed Gust Speed Precip Events Conditions
12:53 AM 57.9 °F 41.0 °F 53% 29.79 in 10.0 mi South 9.2 mph - N/A   Clear
1:53 AM 55.0 °F 45.0 °F 69% 29.80 in 10.0 mi SSW 5.8 mph - N/A   Clear
2:53 AM 53.1 °F 45.0 °F 74% 29.80 in 10.0 mi SSW 5.8 mph - N/A   Clear
3:53 AM 53.1 °F 45.0 °F 74% 29.80 in 10.0 mi Calm Calm - N/A   Clear
4:53 AM 52.0 °F 45.0 °F 77% 29.80 in 10.0 mi SSE 3.5 mph - N/A   Clear
5:53 AM 52.0 °F 45.0 °F 77% 29.81 in 10.0 mi Calm Calm - N/A   Clear
6:53 AM 53.1 °F 45.0 °F 74% 29.84 in 10.0 mi Calm Calm - N/A   Clear
7:53 AM 53.1 °F 45.0 °F 74% 29.88 in 10.0 mi Calm Calm - N/A   Partly Cloudy
8:53 AM 57.0 °F 46.0 °F 67% 29.92 in 10.0 mi Calm Calm - N/A   Overcast
9:53 AM 64.9 °F 46.0 °F 50% 29.92 in 10.0 mi ENE 8.1 mph - N/A   Clear
10:53 AM 68.0 °F 46.9 °F 47% 29.94 in 10.0 mi ENE 10.4 mph - N/A   Clear
11:53 AM 71.1 °F 46.0 °F 41% 29.94 in 10.0 mi ENE 12.7 mph 18.4 mph N/A   Clear
12:53 PM 69.1 °F 48.0 °F 47% 29.97 in 10.0 mi ESE 9.2 mph - N/A   Partly Cloudy
1:53 PM 70.0 °F 46.9 °F 44% 29.99 in 10.0 mi East 10.4 mph - N/A   Partly Cloudy
2:53 PM 72.0 °F 46.9 °F 41% 29.98 in 10.0 mi ESE 9.2 mph 23.0 mph N/A   Partly Cloudy
3:53 PM 72.0 °F 43.0 °F 35% 29.98 in 10.0 mi East 11.5 mph - N/A   Mostly Cloudy
4:53 PM 72.0 °F 43.0 °F 35% 29.98 in 10.0 mi East 9.2 mph - N/A   Mostly Cloudy
5:53 PM 69.1 °F 46.9 °F 45% 29.99 in 10.0 mi ESE 5.8 mph - N/A   Mostly Cloudy
6:53 PM 66.9 °F 50.0 °F 54% 30.01 in 10.0 mi SE 9.2 mph - N/A   Overcast
7:53 PM 64.9 °F 50.0 °F 58% 30.04 in 10.0 mi SE 9.2 mph - N/A   Partly Cloudy
8:53 PM 61.0 °F 46.9 °F 60% 30.07 in 10.0 mi SE 8.1 mph - N/A   Scattered Clouds
9:53 PM 59.0 °F 48.0 °F 67% 30.07 in 10.0 mi South 4.6 mph - N/A   Mostly Cloudy
10:53 PM 57.9 °F 46.9 °F 67% 30.11 in 10.0 mi South 4.6 mph - N/A   Mostly Cloudy
11:53 PM 55.9 °F 46.9 °F 72% 30.12 in 10.0 mi SSW 3.5 mph - N/A   Overcast